Regional Weather Roundup
Issued by NWS Sioux Falls, SD

Home | Current Version | Previous Version | Text Only | Print | Product List | Glossary Off
Versions: 1 2 3 4 5 6 7 8 9 10 11 12 13 14 15 16 17 18 19 20 21 22 23 24 25 26 27 28 29 30 31 32 33 34 35 36 37 38 39 40 41 42 43 44 45 46 47 48 49 50

663
ASUS43 KFSD 270010
RWRFSD

WEATHER ROUNDUP FOR SE SOUTH DAKOTA/SW MINNESOTA/NW IOWA
NATIONAL WEATHER SERVICE SIOUX FALLS SD
700 PM CDT MON JUN 26 2017

NOTE: "FAIR" INDICATES FEW OR NO CLOUDS BELOW 12,000 FEET WITH NO
SIGNIFICANT WEATHER AND OR OBSTRUCTIONS TO VISIBILITY.


SDZ038>040-050-052>070-270100-
SOUTHEAST SOUTH DAKOTA

CITY           SKY/WX    TMP DP  RH WIND       PRES   REMARKS
BROOKINGS      SUNNY     68  38  33 NW3       30.15F
CHAMBERLAIN    SUNNY     75  34  22 NE5       30.12F
6HR MIN TEMP:  72; 6HR MAX TEMP:  77;

HURON          SUNNY     71  38  29 CALM      30.13F
6HR MIN TEMP:  69; 6HR MAX TEMP:  73;

MADISON        FAIR      66  37  34 CALM      30.15F
MITCHELL       SUNNY     73  37  27 E7        30.13F
6HR MIN TEMP:  69; 6HR MAX TEMP:  75;

SIOUX FALLS    SUNNY     70  46  42 N7        30.14F
6HR MIN TEMP:  67; 6HR MAX TEMP:  72;

WINNER         FAIR      77  37  23 E9        30.12F
YANKTON        SUNNY     72  39  30 CALM      30.14F
$$

MNZ071-072-080-081-089-090-097-098-270100-
SOUTHWEST MINNESOTA

CITY           SKY/WX    TMP DP  RH WIND       PRES   REMARKS
FAIRMONT       MOSUNNY   69  42  37 N6        30.14S
JACKSON        SUNNY     68  37  32 N6        30.15S
LUVERNE        SUNNY     68  32  26 N5        30.14F
MARSHALL       SUNNY     69  39  33 NE8       30.14F
6HR MIN TEMP:  64; 6HR MAX TEMP:  69;

MONTEVIDEO     PTSUNNY   72  41  33 N5        30.14S
PIPESTONE      SUNNY     70  36  28 E3        30.15S
REDWOOD FALLS  SUNNY     68  39  34 NW6       30.13S
TRACY          SUNNY     69  42  36 N9        30.15S
WINDOM         SUNNY     68  37  32 N5        30.14S
WORTHINGTON    SUNNY     68  38  33 N10       30.16S
$$

IAZ001>003-012>014-020>022-031-032-NEZ013-014-SDZ071-270100-
NORTHWEST IOWA

CITY           SKY/WX    TMP DP  RH WIND       PRES   REMARKS
CHEROKEE       SUNNY     69  41  36 E7        30.14S
DENISON        SUNNY     72  43  35 N8        30.14R
ESTHERVILLE    SUNNY     68  41  37 N7        30.13F
LE MARS        SUNNY     72  39  30 N5G13     30.14F
ORANGE CITY    SUNNY     70  43  37 NE6       30.14F
SHELDON        SUNNY     70  39  32 N6        30.13S
SIOUX CITY     SUNNY     73  41  31 N8        30.12F
6HR MIN TEMP:  72; 6HR MAX TEMP:  76;

SPENCER        SUNNY     71  38  29 NE8       30.14F
6HR MIN TEMP:  68; 6HR MAX TEMP:  72;

STORM LAKE     SUNNY     70  36  28 NE5G13    30.14S
$$

ABBREVIATIONS USED IN REMARKS
   TC - TEMPERATURE IN CELSIUS
  WCI - WIND CHILL INDEX
   HX - HEAT INDEX
  VSB - VISIBILITY





USA.gov is the U.S. government's official web portal to all federal, state and local government web resources and services.